Time,TemperatureF,DewpointF,PressureIn,WindDirection,WindDirectionDegrees,WindSpeedMPH,WindSpeedGustMPH,Humidity,HourlyPrecipIn,Conditions,Clouds,dailyrainin,SoftwareType,DateUTC
2013-09-17 00:01:00,67.6,61.9,30.20,West,262,3.0,3.0,82,0.00,,,0.00,Wunderground v.1.15,2013-09-17 04:01:00,
2013-09-17 00:02:00,67.6,61.9,30.20,WNW,285,3.0,3.0,82,0.00,,,0.00,Wunderground v.1.15,2013-09-17 04:02:00,
2013-09-17 00:04:00,67.5,62.2,30.20,West,265,3.0,3.0,83,0.00,,,0.00,Wunderground v.1.15,2013-09-17 04:04:00,
2013-09-17 00:08:00,67.5,62.2,30.20,North,355,3.0,3.0,83,0.00,,,0.00,Wunderground v.1.15,2013-09-17 04:08:00,
2013-09-17 00:12:00,67.6,61.9,30.20,North,6,4.0,4.0,82,0.00,,,0.00,Wunderground v.1.15,2013-09-17 04:12:00,
2013-09-17 00:18:00,67.7,61.7,30.20,NW,315,3.0,4.0,81,0.00,,,0.00,Wunderground v.1.15,2013-09-17 04:18:00,
2013-09-17 00:20:00,67.7,61.7,30.20,NNW,339,3.0,4.0,81,0.00,,,0.00,Wunderground v.1.15,2013-09-17 04:20:00,
2013-09-17 00:26:00,68.0,61.2,30.20,NNW,327,3.0,5.0,79,0.00,,,0.00,Wunderground v.1.15,2013-09-17 04:26:00,
2013-09-17 00:32:00,67.9,61.1,30.20,NW,311,5.0,5.0,79,0.00,,,0.00,Wunderground v.1.15,2013-09-17 04:32:00,
2013-09-17 00:38:00,67.7,61.0,30.20,North,354,5.0,8.0,79,0.00,,,0.00,Wunderground v.1.15,2013-09-17 04:38:00,
2013-09-17 00:44:00,67.7,60.6,30.20,NNW,347,6.0,7.0,78,0.00,,,0.00,Wunderground v.1.15,2013-09-17 04:44:00,
2013-09-17 00:50:00,67.7,60.6,30.20,NW,321,6.0,6.0,78,0.00,,,0.00,Wunderground v.1.15,2013-09-17 04:50:00,
2013-09-17 00:56:00,67.6,60.5,30.20,NW,322,5.0,7.0,78,0.00,,,0.00,Wunderground v.1.15,2013-09-17 04:56:00,
2013-09-17 01:02:00,67.5,60.4,30.20,NNW,333,6.0,13.0,78,0.00,,,0.00,Wunderground v.1.15,2013-09-17 05:02:00,
2013-09-17 01:08:00,67.3,60.2,30.19,NW,319,7.0,13.0,78,0.00,,,0.00,Wunderground v.1.15,2013-09-17 05:08:00,
2013-09-17 01:14:00,66.8,60.1,30.19,NW,313,5.0,9.0,79,0.00,,,0.00,Wunderground v.1.15,2013-09-17 05:14:00,
2013-09-17 01:20:00,66.4,60.0,30.20,NW,311,5.0,5.0,80,0.00,,,0.00,Wunderground v.1.15,2013-09-17 05:20:00,
2013-09-17 01:26:00,66.1,59.7,30.19,WNW,284,4.0,8.0,80,0.00,,,0.00,Wunderground v.1.15,2013-09-17 05:26:00,
2013-09-17 01:32:00,65.8,59.8,30.19,NW,315,4.0,8.0,81,0.00,,,0.00,Wunderground v.1.15,2013-09-17 05:32:00,
2013-09-17 01:38:00,65.8,59.8,30.19,NW,323,5.0,8.0,81,0.00,,,0.00,Wunderground v.1.15,2013-09-17 05:38:00,
2013-09-17 01:44:00,65.5,59.5,30.19,NNW,337,5.0,8.0,81,0.00,,,0.00,Wunderground v.1.15,2013-09-17 05:44:00,
2013-09-17 01:50:00,65.5,59.5,30.19,NW,319,6.0,6.0,81,0.00,,,0.00,Wunderground v.1.15,2013-09-17 05:50:00,
2013-09-17 01:56:00,65.5,59.5,30.19,NW,323,6.0,8.0,81,0.00,,,0.00,Wunderground v.1.15,2013-09-17 05:56:00,
2013-09-17 02:02:00,65.5,59.2,30.19,North,3,6.0,8.0,80,0.00,,,0.00,Wunderground v.1.15,2013-09-17 06:02:00,
2013-09-17 02:08:00,65.5,59.2,30.19,North,6,6.0,8.0,80,0.00,,,0.00,Wunderground v.1.15,2013-09-17 06:08:00,
2013-09-17 02:14:00,65.5,59.5,30.19,North,352,5.0,8.0,81,0.00,,,0.00,Wunderground v.1.15,2013-09-17 06:14:00,
2013-09-17 02:20:00,65.4,59.4,30.19,NNW,342,4.0,4.0,81,0.00,,,0.00,Wunderground v.1.15,2013-09-17 06:20:00,
2013-09-17 02:26:00,65.5,59.5,30.19,North,356,4.0,8.0,81,0.00,,,0.00,Wunderground v.1.15,2013-09-17 06:26:00,
2013-09-17 02:32:00,65.5,59.5,30.19,NW,323,5.0,8.0,81,0.00,,,0.00,Wunderground v.1.15,2013-09-17 06:32:00,
2013-09-17 02:38:00,65.4,59.4,30.19,NW,315,5.0,8.0,81,0.00,,,0.00,Wunderground v.1.15,2013-09-17 06:38:00,
2013-09-17 02:44:00,65.1,59.1,30.19,NW,312,3.0,8.0,81,0.00,,,0.00,Wunderground v.1.15,2013-09-17 06:44:00,
2013-09-17 02:50:00,64.9,59.3,30.19,NW,307,4.0,8.0,82,0.00,,,0.00,Wunderground v.1.15,2013-09-17 06:50:00,
2013-09-17 02:56:00,64.9,59.6,30.19,NNW,333,4.0,8.0,83,0.00,,,0.00,Wunderground v.1.15,2013-09-17 06:56:00,
2013-09-17 03:02:00,65.0,59.7,30.19,NW,316,3.0,8.0,83,0.00,,,0.00,Wunderground v.1.15,2013-09-17 07:02:00,
2013-09-17 03:08:00,65.1,59.5,30.19,NNW,327,4.0,8.0,82,0.00,,,0.00,Wunderground v.1.15,2013-09-17 07:08:00,
2013-09-17 03:14:00,65.1,59.8,30.19,NNW,329,4.0,8.0,83,0.00,,,0.00,Wunderground v.1.15,2013-09-17 07:14:00,
2013-09-17 03:20:00,65.0,59.7,30.19,NW,315,5.0,8.0,83,0.00,,,0.00,Wunderground v.1.15,2013-09-17 07:20:00,
2013-09-17 03:26:00,65.0,59.7,30.19,NNW,334,5.0,8.0,83,0.00,,,0.00,Wunderground v.1.15,2013-09-17 07:26:00,
2013-09-17 03:32:00,65.0,59.7,30.19,NW,315,4.0,8.0,83,0.00,,,0.00,Wunderground v.1.15,2013-09-17 07:32:00,
2013-09-17 03:38:00,64.9,59.6,30.19,NW,317,3.0,8.0,83,0.00,,,0.00,Wunderground v.1.15,2013-09-17 07:38:00,
2013-09-17 03:44:00,64.9,59.6,30.19,NW,317,3.0,8.0,83,0.00,,,0.00,Wunderground v.1.15,2013-09-17 07:44:00,
2013-09-17 03:50:00,64.8,59.2,30.19,NW,305,4.0,8.0,82,0.00,,,0.00,Wunderground v.1.15,2013-09-17 07:50:00,
2013-09-17 03:56:00,64.7,59.4,30.19,NNW,344,5.0,8.0,83,0.00,,,0.00,Wunderground v.1.15,2013-09-17 07:56:00,
2013-09-17 04:02:00,64.6,59.3,30.19,NW,315,3.0,8.0,83,0.00,,,0.00,Wunderground v.1.15,2013-09-17 08:02:00,
2013-09-17 04:08:00,64.6,59.3,30.19,WNW,302,3.0,8.0,83,0.00,,,0.00,Wunderground v.1.15,2013-09-17 08:08:00,
2013-09-17 04:14:00,64.5,59.2,30.19,NW,315,5.0,8.0,83,0.00,,,0.00,Wunderground v.1.15,2013-09-17 08:14:00,
2013-09-17 04:20:00,64.4,58.8,30.19,NW,314,5.0,5.0,82,0.00,,,0.00,Wunderground v.1.15,2013-09-17 08:20:00,
2013-09-17 04:26:00,64.3,58.7,30.19,NW,315,5.0,8.0,82,0.00,,,0.00,Wunderground v.1.15,2013-09-17 08:26:00,
2013-09-17 04:32:00,64.2,58.6,30.19,West,281,6.0,8.0,82,0.00,,,0.00,Wunderground v.1.15,2013-09-17 08:32:00,
2013-09-17 04:38:00,64.2,58.6,30.19,NW,323,6.0,8.0,82,0.00,,,0.00,Wunderground v.1.15,2013-09-17 08:38:00,
2013-09-17 04:44:00,64.2,58.2,30.18,NW,322,6.0,9.0,81,0.00,,,0.00,Wunderground v.1.15,2013-09-17 08:44:00,
2013-09-17 04:50:00,64.2,58.2,30.19,NW,322,7.0,7.0,81,0.00,,,0.00,Wunderground v.1.15,2013-09-17 08:50:00,
2013-09-17 04:56:00,64.1,58.1,30.19,NW,315,6.0,8.0,81,0.00,,,0.00,Wunderground v.1.15,2013-09-17 08:56:00,
2013-09-17 05:02:00,64.1,58.1,30.19,NNW,333,6.0,7.0,81,0.00,,,0.00,Wunderground v.1.15,2013-09-17 09:02:00,
2013-09-17 05:08:00,64.1,58.1,30.19,NW,317,6.0,9.0,81,0.00,,,0.00,Wunderground v.1.15,2013-09-17 09:08:00,
2013-09-17 05:14:00,64.1,57.8,30.19,NW,317,6.0,8.0,80,0.00,,,0.00,Wunderground v.1.15,2013-09-17 09:14:00,
2013-09-17 05:20:00,64.2,57.9,30.19,NNW,327,5.0,5.0,80,0.00,,,0.00,Wunderground v.1.15,2013-09-17 09:20:00,
2013-09-17 05:26:00,64.2,57.9,30.19,NW,322,4.0,8.0,80,0.00,,,0.00,Wunderground v.1.15,2013-09-17 09:26:00,
2013-09-17 05:32:00,64.1,58.1,30.19,NW,304,4.0,8.0,81,0.00,,,0.00,Wunderground v.1.15,2013-09-17 09:32:00,
2013-09-17 05:38:00,64.1,57.8,30.19,NW,321,5.0,8.0,80,0.00,,,0.00,Wunderground v.1.15,2013-09-17 09:38:00,
2013-09-17 05:44:00,64.1,57.8,30.19,West,274,5.0,8.0,80,0.00,,,0.00,Wunderground v.1.15,2013-09-17 09:44:00,
2013-09-17 05:50:00,63.9,57.3,30.19,WNW,285,5.0,8.0,79,0.00,,,0.00,Wunderground v.1.15,2013-09-17 09:50:00,
2013-09-17 05:56:00,63.7,57.1,30.19,NW,314,5.0,8.0,79,0.00,,,0.00,Wunderground v.1.15,2013-09-17 09:56:00,
2013-09-17 06:02:00,63.8,57.2,30.19,NW,325,6.0,8.0,79,0.00,,,0.00,Wunderground v.1.15,2013-09-17 10:02:00,
2013-09-17 06:08:00,63.8,57.2,30.20,NNW,334,6.0,8.0,79,0.00,,,0.00,Wunderground v.1.15,2013-09-17 10:08:00,
2013-09-17 06:14:00,63.7,57.1,30.20,NNW,334,5.0,8.0,79,0.00,,,0.00,Wunderground v.1.15,2013-09-17 10:14:00,
2013-09-17 06:20:00,63.6,57.0,30.20,NW,319,6.0,6.0,79,0.00,,,0.00,Wunderground v.1.15,2013-09-17 10:20:00,
2013-09-17 06:26:00,63.5,56.9,30.20,NNW,342,5.0,8.0,79,0.00,,,0.00,Wunderground v.1.15,2013-09-17 10:26:00,
2013-09-17 06:32:00,63.7,56.7,30.20,NW,309,5.0,8.0,78,0.00,,,0.00,Wunderground v.1.15,2013-09-17 10:32:00,
2013-09-17 06:38:00,63.6,56.6,30.20,North,8,6.0,8.0,78,0.00,,,0.00,Wunderground v.1.15,2013-09-17 10:38:00,
2013-09-17 06:44:00,63.7,57.1,30.20,NNW,341,5.0,9.0,79,0.00,,,0.00,Wunderground v.1.15,2013-09-17 10:44:00,
2013-09-17 06:50:00,63.9,57.3,30.20,NNW,333,6.0,6.0,79,0.00,,,0.00,Wunderground v.1.15,2013-09-17 10:50:00,
2013-09-17 06:56:00,64.0,57.4,30.20,NW,321,4.0,8.0,79,0.00,,,0.00,Wunderground v.1.15,2013-09-17 10:56:00,
2013-09-17 07:02:00,63.9,57.3,30.20,North,349,4.0,8.0,79,0.00,,,0.00,Wunderground v.1.15,2013-09-17 11:02:00,
2013-09-17 07:08:00,64.0,57.7,30.20,NNE,14,4.0,8.0,80,0.00,,,0.00,Wunderground v.1.15,2013-09-17 11:08:00,
2013-09-17 07:14:00,64.2,58.2,30.20,North,6,5.0,8.0,81,0.00,,,0.00,Wunderground v.1.15,2013-09-17 11:14:00,
2013-09-17 07:20:00,64.3,58.0,30.21,NNW,338,6.0,8.0,80,0.00,,,0.00,Wunderground v.1.15,2013-09-17 11:20:00,
2013-09-17 07:26:00,64.3,57.3,30.21,North,11,8.0,12.0,78,0.00,,,0.00,Wunderground v.1.15,2013-09-17 11:26:00,
2013-09-17 07:32:00,64.3,57.3,30.21,NW,323,9.0,9.0,78,0.00,,,0.00,Wunderground v.1.15,2013-09-17 11:32:00,
2013-09-17 07:40:00,64.2,57.2,30.21,NNW,337,9.0,10.0,78,0.00,,,0.00,Wunderground v.1.15,2013-09-17 11:40:00,
2013-09-17 07:46:00,64.1,57.5,30.21,North,354,8.0,10.0,79,0.00,,,0.00,Wunderground v.1.15,2013-09-17 11:46:00,
2013-09-17 07:52:00,63.5,56.9,30.22,NW,311,4.0,8.0,79,0.00,,,0.00,Wunderground v.1.15,2013-09-17 11:52:00,
2013-09-17 07:58:00,63.1,56.5,30.22,WNW,302,3.0,8.0,79,0.00,,,0.00,Wunderground v.1.15,2013-09-17 11:58:00,
2013-09-17 08:04:00,62.6,56.3,30.22,WNW,289,3.0,8.0,80,0.00,,,0.00,Wunderground v.1.15,2013-09-17 12:04:00,
2013-09-17 08:10:00,62.7,56.8,30.21,WNW,300,3.0,3.0,81,0.00,,,0.00,Wunderground v.1.15,2013-09-17 12:10:00,
2013-09-17 08:16:00,62.7,56.4,30.22,NW,321,3.0,8.0,80,0.00,,,0.00,Wunderground v.1.15,2013-09-17 12:16:00,
2013-09-17 08:22:00,62.7,56.4,30.22,West,269,4.0,8.0,80,0.00,,,0.00,Wunderground v.1.15,2013-09-17 12:22:00,
2013-09-17 08:28:00,62.9,56.6,30.22,NW,314,4.0,8.0,80,0.00,,,0.00,Wunderground v.1.15,2013-09-17 12:28:00,
2013-09-17 08:34:00,63.0,56.4,30.22,NW,322,5.0,8.0,79,0.00,,,0.00,Wunderground v.1.15,2013-09-17 12:34:00,
2013-09-17 08:40:00,63.7,57.4,30.22,NW,315,4.0,8.0,80,0.00,,,0.00,Wunderground v.1.15,2013-09-17 12:40:00,
2013-09-17 08:46:00,64.1,57.1,30.22,NNW,339,4.0,8.0,78,0.00,,,0.00,Wunderground v.1.15,2013-09-17 12:46:00,
2013-09-17 08:52:00,64.7,57.7,30.22,NW,321,4.0,8.0,78,0.00,,,0.00,Wunderground v.1.15,2013-09-17 12:52:00,
2013-09-17 08:58:00,64.9,57.5,30.22,NNW,347,4.0,8.0,77,0.00,,,0.00,Wunderground v.1.15,2013-09-17 12:58:00,
2013-09-17 09:04:00,65.1,58.1,30.22,NNW,339,5.0,11.0,78,0.00,,,0.00,Wunderground v.1.15,2013-09-17 13:04:00,
2013-09-17 09:10:00,65.2,57.8,30.23,North,350,8.0,11.0,77,0.00,,,0.00,Wunderground v.1.15,2013-09-17 13:10:00,
2013-09-17 09:16:00,65.2,57.8,30.23,NNW,339,10.0,13.0,77,0.00,,,0.00,Wunderground v.1.15,2013-09-17 13:16:00,
2013-09-17 09:22:00,65.0,57.6,30.23,NNW,342,10.0,10.0,77,0.00,,,0.00,Wunderground v.1.15,2013-09-17 13:22:00,
2013-09-17 09:28:00,65.0,57.6,30.23,NW,319,10.0,15.0,77,0.00,,,0.00,Wunderground v.1.15,2013-09-17 13:28:00,
2013-09-17 09:34:00,64.9,57.5,30.23,NNW,337,11.0,13.0,77,0.00,,,0.00,Wunderground v.1.15,2013-09-17 13:34:00,
2013-09-17 09:40:00,64.9,57.9,30.23,NNW,347,11.0,11.0,78,0.00,,,0.00,Wunderground v.1.15,2013-09-17 13:40:00,
2013-09-17 09:46:00,64.9,57.9,30.23,North,360,11.0,14.0,78,0.00,,,0.00,Wunderground v.1.15,2013-09-17 13:46:00,
2013-09-17 09:52:00,65.3,58.3,30.23,North,356,10.0,12.0,78,0.00,,,0.00,Wunderground v.1.15,2013-09-17 13:52:00,
2013-09-17 09:58:00,65.8,58.7,30.23,North,350,9.0,12.0,78,0.00,,,0.00,Wunderground v.1.15,2013-09-17 13:58:00,
2013-09-17 10:04:00,65.8,58.4,30.23,NNW,336,8.0,8.0,77,0.00,,,0.00,Wunderground v.1.15,2013-09-17 14:04:00,
2013-09-17 10:10:00,65.9,58.1,30.23,NW,322,8.0,8.0,76,0.00,,,0.00,Wunderground v.1.15,2013-09-17 14:10:00,
2013-09-17 10:16:00,66.0,58.6,30.23,North,356,9.0,13.0,77,0.00,,,0.00,Wunderground v.1.15,2013-09-17 14:16:00,
2013-09-17 10:22:00,66.4,58.6,30.24,NNW,346,9.0,10.0,76,0.00,,,0.00,Wunderground v.1.15,2013-09-17 14:22:00,
2013-09-17 10:28:00,66.7,59.3,30.24,NNW,344,8.0,11.0,77,0.00,,,0.00,Wunderground v.1.15,2013-09-17 14:28:00,
2013-09-17 10:34:00,67.3,59.5,30.24,North,8,7.0,10.0,76,0.00,,,0.00,Wunderground v.1.15,2013-09-17 14:34:00,
2013-09-17 10:40:00,67.1,58.9,30.24,North,350,7.0,8.0,75,0.00,,,0.00,Wunderground v.1.15,2013-09-17 14:40:00,
2013-09-17 10:46:00,67.2,59.4,30.24,North,349,7.0,9.0,76,0.00,,,0.00,Wunderground v.1.15,2013-09-17 14:46:00,
2013-09-17 10:52:00,67.1,58.9,30.24,North,360,6.0,8.0,75,0.00,,,0.00,Wunderground v.1.15,2013-09-17 14:52:00,
2013-09-17 10:58:00,67.4,59.9,30.24,North,9,6.0,8.0,77,0.00,,,0.00,Wunderground v.1.15,2013-09-17 14:58:00,
2013-09-17 11:04:00,67.8,60.0,30.24,North,358,5.0,8.0,76,0.00,,,0.00,Wunderground v.1.15,2013-09-17 15:04:00,
2013-09-17 11:10:00,68.2,60.0,30.24,North,9,5.0,8.0,75,0.00,,,0.00,Wunderground v.1.15,2013-09-17 15:10:00,
2013-09-17 11:16:00,68.5,60.3,30.24,NNW,334,6.0,8.0,75,0.00,,,0.00,Wunderground v.1.15,2013-09-17 15:16:00,
2013-09-17 11:22:00,68.8,60.2,30.24,NNW,340,5.0,8.0,74,0.00,,,0.00,Wunderground v.1.15,2013-09-17 15:22:00,
2013-09-17 11:28:00,69.0,60.0,30.24,NW,325,5.0,8.0,73,0.00,,,0.00,Wunderground v.1.15,2013-09-17 15:28:00,
2013-09-17 11:34:00,68.9,59.9,30.24,NW,316,5.0,8.0,73,0.00,,,0.00,Wunderground v.1.15,2013-09-17 15:34:00,
2013-09-17 11:40:00,69.0,60.0,30.24,WNW,300,5.0,5.0,73,0.00,,,0.00,Wunderground v.1.15,2013-09-17 15:40:00,
2013-09-17 11:46:00,69.3,60.7,30.24,WNW,287,6.0,8.0,74,0.00,,,0.00,Wunderground v.1.15,2013-09-17 15:46:00,
2013-09-17 11:52:00,69.4,60.4,30.24,NNW,334,6.0,8.0,73,0.00,,,0.00,Wunderground v.1.15,2013-09-17 15:52:00,
2013-09-17 11:58:00,70.2,61.1,30.23,North,360,6.0,8.0,73,0.00,,,0.00,Wunderground v.1.15,2013-09-17 15:58:00,
2013-09-17 12:04:00,70.4,62.1,30.24,NNW,338,5.0,8.0,75,0.00,,,0.00,Wunderground v.1.15,2013-09-17 16:04:00,
2013-09-17 12:10:00,70.7,60.8,30.24,NW,316,5.0,8.0,71,0.00,,,0.00,Wunderground v.1.15,2013-09-17 16:10:00,
2013-09-17 12:16:00,70.7,61.6,30.23,NNW,328,7.0,11.0,73,0.00,,,0.00,Wunderground v.1.15,2013-09-17 16:16:00,
2013-09-17 12:22:00,71.0,61.5,30.23,NNW,337,7.0,8.0,72,0.00,,,0.00,Wunderground v.1.15,2013-09-17 16:22:00,
2013-09-17 12:28:00,71.2,61.3,30.23,NW,314,6.0,8.0,71,0.00,,,0.00,Wunderground v.1.15,2013-09-17 16:28:00,
2013-09-17 12:34:00,71.7,61.8,30.23,NW,326,5.0,8.0,71,0.00,,,0.00,Wunderground v.1.15,2013-09-17 16:34:00,
2013-09-17 12:40:00,72.0,62.1,30.23,NNW,338,4.0,4.0,71,0.00,,,0.00,Wunderground v.1.15,2013-09-17 16:40:00,
2013-09-17 12:46:00,72.3,62.4,30.23,NNW,338,5.0,8.0,71,0.00,,,0.00,Wunderground v.1.15,2013-09-17 16:46:00,
2013-09-17 12:52:00,72.6,61.8,30.22,North,352,6.0,8.0,69,0.00,,,0.00,Wunderground v.1.15,2013-09-17 16:52:00,
2013-09-17 12:58:00,72.7,62.3,30.22,NW,319,6.0,9.0,70,0.00,,,0.00,Wunderground v.1.15,2013-09-17 16:58:00,
2013-09-17 13:04:00,72.8,62.0,30.22,NW,322,6.0,8.0,69,0.00,,,0.00,Wunderground v.1.15,2013-09-17 17:04:00,
2013-09-17 13:10:00,72.8,62.0,30.22,NNW,333,5.0,5.0,69,0.00,,,0.00,Wunderground v.1.15,2013-09-17 17:10:00,
2013-09-17 13:16:00,72.9,62.1,30.22,NNW,330,6.0,8.0,69,0.00,,,0.00,Wunderground v.1.15,2013-09-17 17:16:00,
2013-09-17 13:22:00,73.5,62.3,30.21,NW,316,5.0,8.0,68,0.00,,,0.00,Wunderground v.1.15,2013-09-17 17:22:00,
2013-09-17 13:28:00,73.7,62.5,30.21,NW,325,5.0,8.0,68,0.00,,,0.00,Wunderground v.1.15,2013-09-17 17:28:00,
2013-09-17 13:34:00,74.0,62.8,30.21,NW,308,5.0,8.0,68,0.00,,,0.00,Wunderground v.1.15,2013-09-17 17:34:00,
2013-09-17 13:40:00,74.2,62.5,30.21,West,278,5.0,5.0,67,0.00,,,0.00,Wunderground v.1.15,2013-09-17 17:40:00,
2013-09-17 13:46:00,74.7,63.4,30.20,NW,308,5.0,8.0,68,0.00,,,0.00,Wunderground v.1.15,2013-09-17 17:46:00,
2013-09-17 13:52:00,74.7,63.0,30.20,NW,325,5.0,8.0,67,0.00,,,0.00,Wunderground v.1.15,2013-09-17 17:52:00,
2013-09-17 13:58:00,74.8,62.7,30.20,NNW,328,6.0,8.0,66,0.00,,,0.00,Wunderground v.1.15,2013-09-17 17:58:00,
2013-09-17 14:04:00,75.3,64.4,30.19,NW,319,6.0,8.0,69,0.00,,,0.00,Wunderground v.1.15,2013-09-17 18:04:00,
2013-09-17 14:10:00,75.5,62.9,30.19,NW,310,5.0,5.0,65,0.00,,,0.00,Wunderground v.1.15,2013-09-17 18:10:00,
2013-09-17 14:16:00,76.1,64.8,30.19,NW,314,5.0,8.0,68,0.00,,,0.00,Wunderground v.1.15,2013-09-17 18:16:00,
2013-09-17 14:22:00,76.4,62.4,30.19,North,349,4.0,8.0,62,0.00,,,0.00,Wunderground v.1.15,2013-09-17 18:22:00,
2013-09-17 14:28:00,76.1,62.1,30.19,North,355,6.0,8.0,62,0.00,,,0.00,Wunderground v.1.15,2013-09-17 18:28:00,
2013-09-17 14:34:00,75.9,62.4,30.19,NW,309,5.0,8.0,63,0.00,,,0.00,Wunderground v.1.15,2013-09-17 18:34:00,
2013-09-17 14:40:00,76.3,62.8,30.18,NW,319,5.0,8.0,63,0.00,,,0.00,Wunderground v.1.15,2013-09-17 18:40:00,
2013-09-17 14:46:00,76.4,62.4,30.18,NW,321,5.0,8.0,62,0.00,,,0.00,Wunderground v.1.15,2013-09-17 18:46:00,
2013-09-17 14:52:00,76.8,62.8,30.18,NNW,328,4.0,8.0,62,0.00,,,0.00,Wunderground v.1.15,2013-09-17 18:52:00,
2013-09-17 14:58:00,77.1,63.1,30.18,NW,321,4.0,8.0,62,0.00,,,0.00,Wunderground v.1.15,2013-09-17 18:58:00,
2013-09-17 15:04:00,77.2,62.2,30.17,NW,315,4.0,8.0,60,0.00,,,0.00,Wunderground v.1.15,2013-09-17 19:04:00,
2013-09-17 15:10:00,77.0,62.0,30.17,NW,316,5.0,5.0,60,0.00,,,0.00,Wunderground v.1.15,2013-09-17 19:10:00,
2013-09-17 15:16:00,77.0,61.6,30.17,NNW,327,5.0,8.0,59,0.00,,,0.00,Wunderground v.1.15,2013-09-17 19:16:00,
2013-09-17 15:22:00,76.9,62.0,30.17,NNE,12,4.0,5.0,60,0.00,,,0.00,Wunderground v.1.15,2013-09-17 19:22:00,
2013-09-17 15:28:00,77.2,62.2,30.17,NW,312,5.0,8.0,60,0.00,,,0.00,Wunderground v.1.15,2013-09-17 19:28:00,
2013-09-17 15:34:00,77.2,62.2,30.17,NW,316,5.0,8.0,60,0.00,,,0.00,Wunderground v.1.15,2013-09-17 19:34:00,
2013-09-17 15:40:00,77.4,62.9,30.16,NW,322,5.0,5.0,61,0.00,,,0.00,Wunderground v.1.15,2013-09-17 19:40:00,
2013-09-17 15:46:00,77.7,62.7,30.16,North,357,3.0,8.0,60,0.00,,,0.00,Wunderground v.1.15,2013-09-17 19:46:00,
2013-09-17 15:52:00,77.6,62.1,30.16,NW,315,3.0,8.0,59,0.00,,,0.00,Wunderground v.1.15,2013-09-17 19:52:00,
2013-09-17 15:58:00,77.4,62.4,30.16,North,349,4.0,8.0,60,0.00,,,0.00,Wunderground v.1.15,2013-09-17 19:58:00,
2013-09-17 16:04:00,77.3,63.3,30.16,NW,325,4.0,8.0,62,0.00,,,0.00,Wunderground v.1.15,2013-09-17 20:04:00,
2013-09-17 16:10:00,77.3,62.3,30.16,NW,304,3.0,8.0,60,0.00,,,0.00,Wunderground v.1.15,2013-09-17 20:10:00,
2013-09-17 16:16:00,77.1,62.1,30.16,NNW,338,4.0,8.0,60,0.00,,,0.00,Wunderground v.1.15,2013-09-17 20:16:00,
2013-09-17 16:22:00,77.1,63.1,30.16,NW,313,3.0,8.0,62,0.00,,,0.00,Wunderground v.1.15,2013-09-17 20:22:00,
2013-09-17 16:28:00,77.2,62.7,30.16,North,4,3.0,8.0,61,0.00,,,0.00,Wunderground v.1.15,2013-09-17 20:28:00,
2013-09-17 16:34:00,77.2,62.2,30.16,NNW,330,3.0,8.0,60,0.00,,,0.00,Wunderground v.1.15,2013-09-17 20:34:00,
2013-09-17 16:40:00,77.2,62.7,30.16,North,355,4.0,4.0,61,0.00,,,0.00,Wunderground v.1.15,2013-09-17 20:40:00,
2013-09-17 16:46:00,77.4,62.9,30.16,NNW,333,3.0,8.0,61,0.00,,,0.00,Wunderground v.1.15,2013-09-17 20:46:00,
2013-09-17 16:52:00,77.5,62.5,30.16,NNW,335,4.0,8.0,60,0.00,,,0.00,Wunderground v.1.15,2013-09-17 20:52:00,
2013-09-17 16:58:00,77.6,64.0,30.15,North,360,4.0,8.0,63,0.00,,,0.00,Wunderground v.1.15,2013-09-17 20:58:00,
2013-09-17 17:04:00,77.9,62.9,30.15,NNW,343,3.0,8.0,60,0.00,,,0.00,Wunderground v.1.15,2013-09-17 21:04:00,
2013-09-17 17:10:00,77.9,62.9,30.15,NNW,337,4.0,8.0,60,0.00,,,0.00,Wunderground v.1.15,2013-09-17 21:10:00,
2013-09-17 17:16:00,77.6,62.6,30.15,NW,319,4.0,8.0,60,0.00,,,0.00,Wunderground v.1.15,2013-09-17 21:16:00,
2013-09-17 17:22:00,77.5,63.0,30.15,NNW,332,4.0,8.0,61,0.00,,,0.00,Wunderground v.1.15,2013-09-17 21:22:00,
2013-09-17 17:28:00,77.6,62.6,30.15,NW,320,3.0,8.0,60,0.00,,,0.00,Wunderground v.1.15,2013-09-17 21:28:00,
2013-09-17 17:34:00,77.8,62.8,30.15,NNW,344,2.0,8.0,60,0.00,,,0.00,Wunderground v.1.15,2013-09-17 21:34:00,
2013-09-17 17:40:00,77.6,63.5,30.15,NNW,330,3.0,3.0,62,0.00,,,0.00,Wunderground v.1.15,2013-09-17 21:40:00,
2013-09-17 17:46:00,77.5,63.0,30.15,NW,315,3.0,8.0,61,0.00,,,0.00,Wunderground v.1.15,2013-09-17 21:46:00,
2013-09-17 17:52:00,77.4,63.4,30.15,NNW,332,3.0,8.0,62,0.00,,,0.00,Wunderground v.1.15,2013-09-17 21:52:00,
2013-09-17 17:58:00,77.3,62.8,30.15,NNW,340,2.0,8.0,61,0.00,,,0.00,Wunderground v.1.15,2013-09-17 21:58:00,
2013-09-17 18:06:00,77.1,63.5,30.15,NW,307,2.0,8.0,63,0.00,,,0.00,Wunderground v.1.15,2013-09-17 22:06:00,
2013-09-17 18:12:00,77.1,64.0,30.15,North,360,2.0,8.0,64,0.00,,,0.00,Wunderground v.1.15,2013-09-17 22:12:00,
2013-09-17 18:18:00,77.0,63.4,30.14,NNW,338,2.0,8.0,63,0.00,,,0.00,Wunderground v.1.15,2013-09-17 22:18:00,
2013-09-17 18:24:00,77.0,62.5,30.14,NNE,15,4.0,8.0,61,0.00,,,0.00,Wunderground v.1.15,2013-09-17 22:24:00,
2013-09-17 18:30:00,76.9,63.3,30.14,NNE,12,5.0,8.0,63,0.00,,,0.00,Wunderground v.1.15,2013-09-17 22:30:00,
2013-09-17 18:36:00,76.7,63.6,30.15,NNE,19,5.0,8.0,64,0.00,,,0.00,Wunderground v.1.15,2013-09-17 22:36:00,
2013-09-17 18:42:00,76.6,64.0,30.15,NNE,30,5.0,7.0,65,0.00,,,0.00,Wunderground v.1.15,2013-09-17 22:42:00,
2013-09-17 18:48:00,76.4,62.9,30.15,NE,50,7.0,10.0,63,0.00,,,0.00,Wunderground v.1.15,2013-09-17 22:48:00,
2013-09-17 18:54:00,76.1,63.0,30.15,NNE,25,8.0,10.0,64,0.00,,,0.00,Wunderground v.1.15,2013-09-17 22:54:00,
2013-09-17 19:00:00,75.8,63.2,30.15,NNE,25,8.0,8.0,65,0.00,,,0.00,Wunderground v.1.15,2013-09-17 23:00:00,
2013-09-17 19:06:00,75.5,63.3,30.15,NE,34,7.0,9.0,66,0.00,,,0.00,Wunderground v.1.15,2013-09-17 23:06:00,
2013-09-17 19:12:00,75.3,63.6,30.15,NNE,30,7.0,8.0,67,0.00,,,0.00,Wunderground v.1.15,2013-09-17 23:12:00,
2013-09-17 19:18:00,75.0,62.9,30.15,NNE,26,6.0,8.0,66,0.00,,,0.00,Wunderground v.1.15,2013-09-17 23:18:00,
2013-09-17 19:24:00,74.7,63.0,30.15,NNE,30,6.0,8.0,67,0.00,,,0.00,Wunderground v.1.15,2013-09-17 23:24:00,
2013-09-17 19:30:00,74.4,62.7,30.15,NNE,25,7.0,7.0,67,0.00,,,0.00,Wunderground v.1.15,2013-09-17 23:30:00,
2013-09-17 19:36:00,74.1,63.7,30.15,NE,34,7.0,8.0,70,0.00,,,0.00,Wunderground v.1.15,2013-09-17 23:36:00,
2013-09-17 19:42:00,73.8,63.0,30.15,NNE,13,7.0,8.0,69,0.00,,,0.00,Wunderground v.1.15,2013-09-17 23:42:00,
2013-09-17 19:48:00,73.4,62.6,30.15,North,5,6.0,8.0,69,0.00,,,0.00,Wunderground v.1.15,2013-09-17 23:48:00,
2013-09-17 19:54:00,73.1,62.3,30.16,NNE,26,4.0,8.0,69,0.00,,,0.00,Wunderground v.1.15,2013-09-17 23:54:00,
2013-09-17 20:00:00,72.9,62.5,30.16,NNW,345,3.0,3.0,70,0.00,,,0.00,Wunderground v.1.15,2013-09-18 00:00:00,
2013-09-17 20:06:00,72.4,62.5,30.15,WNW,294,2.0,8.0,71,0.00,,,0.00,Wunderground v.1.15,2013-09-18 00:06:00,
2013-09-17 20:12:00,71.8,62.3,30.16,NW,315,0.0,8.0,72,0.00,,,0.00,Wunderground v.1.15,2013-09-18 00:12:00,
2013-09-17 20:18:00,71.4,61.9,30.16,NW,307,1.0,8.0,72,0.00,,,0.00,Wunderground v.1.15,2013-09-18 00:18:00,
2013-09-17 20:24:00,71.5,61.6,30.16,NW,324,3.0,8.0,71,0.00,,,0.00,Wunderground v.1.15,2013-09-18 00:24:00,
2013-09-17 20:30:00,71.6,61.7,30.16,North,11,4.0,8.0,71,0.00,,,0.00,Wunderground v.1.15,2013-09-18 00:30:00,
2013-09-17 20:36:00,71.6,61.3,30.16,North,3,6.0,8.0,70,0.00,,,0.00,Wunderground v.1.15,2013-09-18 00:36:00,
2013-09-17 20:42:00,71.6,60.9,30.16,North,6,7.0,8.0,69,0.00,,,0.00,Wunderground v.1.15,2013-09-18 00:42:00,
2013-09-17 20:48:00,71.5,61.2,30.16,NNE,23,7.0,8.0,70,0.00,,,0.00,Wunderground v.1.15,2013-09-18 00:48:00,
2013-09-17 20:54:00,71.5,61.2,30.16,NNE,12,8.0,8.0,70,0.00,,,0.00,Wunderground v.1.15,2013-09-18 00:54:00,
2013-09-17 21:00:00,71.5,61.6,30.17,North,8,6.0,8.0,71,0.00,,,0.00,Wunderground v.1.15,2013-09-18 01:00:00,
2013-09-17 21:06:00,71.2,62.1,30.17,North,1,6.0,8.0,73,0.00,,,0.00,Wunderground v.1.15,2013-09-18 01:06:00,
2013-09-17 21:12:00,70.6,61.9,30.17,North,356,4.0,8.0,74,0.00,,,0.00,Wunderground v.1.15,2013-09-18 01:12:00,
2013-09-17 21:18:00,70.6,60.7,30.17,NNE,27,3.0,8.0,71,0.00,,,0.00,Wunderground v.1.15,2013-09-18 01:18:00,
2013-09-17 21:24:00,70.6,61.5,30.17,NW,326,3.0,8.0,73,0.00,,,0.00,Wunderground v.1.15,2013-09-18 01:24:00,
2013-09-17 21:30:00,70.2,60.7,30.17,North,11,2.0,8.0,72,0.00,,,0.00,Wunderground v.1.15,2013-09-18 01:30:00,
2013-09-17 21:36:00,70.3,61.6,30.17,NNW,337,2.0,8.0,74,0.00,,,0.00,Wunderground v.1.15,2013-09-18 01:36:00,
2013-09-17 21:42:00,70.1,61.4,30.17,NNW,340,3.0,8.0,74,0.00,,,0.00,Wunderground v.1.15,2013-09-18 01:42:00,
2013-09-17 21:48:00,69.8,61.9,30.17,WNW,289,3.0,8.0,76,0.00,,,0.00,Wunderground v.1.15,2013-09-18 01:48:00,
2013-09-17 21:54:00,69.5,61.2,30.18,North,360,4.0,8.0,75,0.00,,,0.00,Wunderground v.1.15,2013-09-18 01:54:00,
2013-09-17 22:02:00,69.5,60.8,30.18,North,356,3.0,5.0,74,0.00,,,0.00,Wunderground v.1.15,2013-09-18 02:02:00,
2013-09-17 22:08:00,69.2,61.3,30.18,NNW,345,4.0,8.0,76,0.00,,,0.00,Wunderground v.1.15,2013-09-18 02:08:00,
2013-09-17 22:14:00,69.1,60.5,30.18,NNW,332,5.0,8.0,74,0.00,,,0.00,Wunderground v.1.15,2013-09-18 02:14:00,
2013-09-17 22:20:00,69.0,60.7,30.18,NNW,338,6.0,9.0,75,0.00,,,0.00,Wunderground v.1.15,2013-09-18 02:20:00,
2013-09-17 22:26:00,68.8,60.2,30.18,NNW,347,6.0,9.0,74,0.00,,,0.00,Wunderground v.1.15,2013-09-18 02:26:00,
2013-09-17 22:32:00,68.7,60.5,30.18,North,350,7.0,8.0,75,0.00,,,0.00,Wunderground v.1.15,2013-09-18 02:32:00,
2013-09-17 22:38:00,68.5,60.3,30.18,NNW,327,6.0,8.0,75,0.00,,,0.00,Wunderground v.1.15,2013-09-18 02:38:00,
2013-09-17 22:44:00,68.4,60.2,30.19,North,356,5.0,8.0,75,0.00,,,0.00,Wunderground v.1.15,2013-09-18 02:44:00,
2013-09-17 22:50:00,68.3,60.1,30.19,North,1,5.0,9.0,75,0.00,,,0.00,Wunderground v.1.15,2013-09-18 02:50:00,
2013-09-17 22:56:00,68.2,60.0,30.19,NNW,335,6.0,9.0,75,0.00,,,0.00,Wunderground v.1.15,2013-09-18 02:56:00,
2013-09-17 23:02:00,68.0,59.8,30.19,North,3,5.0,8.0,75,0.00,,,0.00,Wunderground v.1.15,2013-09-18 03:02:00,
2013-09-17 23:08:00,67.8,59.6,30.19,NNW,331,4.0,8.0,75,0.00,,,0.00,Wunderground v.1.15,2013-09-18 03:08:00,
2013-09-17 23:14:00,67.7,59.9,30.19,North,356,5.0,8.0,76,0.00,,,0.00,Wunderground v.1.15,2013-09-18 03:14:00,
2013-09-17 23:20:00,67.6,59.8,30.19,North,1,6.0,6.0,76,0.00,,,0.00,Wunderground v.1.15,2013-09-18 03:20:00,
2013-09-17 23:26:00,67.6,59.8,30.20,NNW,327,5.0,8.0,76,0.00,,,0.00,Wunderground v.1.15,2013-09-18 03:26:00,
2013-09-17 23:32:00,67.5,59.7,30.20,North,352,6.0,8.0,76,0.00,,,0.00,Wunderground v.1.15,2013-09-18 03:32:00,
2013-09-17 23:38:00,67.4,59.6,30.20,NNW,333,6.0,8.0,76,0.00,,,0.00,Wunderground v.1.15,2013-09-18 03:38:00,
2013-09-17 23:44:00,67.3,59.5,30.19,North,358,7.0,8.0,76,0.00,,,0.00,Wunderground v.1.15,2013-09-18 03:44:00,
2013-09-17 23:50:00,67.1,58.9,30.19,North,355,8.0,8.0,75,0.00,,,0.00,Wunderground v.1.15,2013-09-18 03:50:00,
2013-09-17 23:56:00,67.0,59.2,30.19,NNE,19,8.0,9.0,76,0.00,,,0.00,Wunderground v.1.15,2013-09-18 03:56:00,